KG6SIB Weather Reports


time (UTC)temp
F
wind
direction
speed
knots
gust
knots
rain 1hr
in
rain 24hr
in
rain mn
in
humidity
%
barometer
mb
20230208174656 57 157 4.3 15.6 0.00 0.00 0.00 29 1024.6
20230208174155 57 151 7.0 15.6 0.00 0.00 0.00 28 1024.5
20230208173155 56 98 9.6 24.3 0.00 0.00 0.00 30 1024.3
20230208172656 56 86 13.0 24.3 0.00 0.00 0.00 29 1024.1
20230208172155 56 90 13.0 23.5 0.00 0.00 0.00 30 1024.1
20230208171655 56 101 23.5 23.5 0.00 0.00 0.00 30 1024.0
20230208171154 56 94 13.0 20.0 0.00 0.00 0.00 30 1024.1
20230208170656 55 111 11.3 20.9 0.00 0.00 0.00 30 1023.8
20230208170154 55 84 13.0 20.9 0.00 0.00 0.00 29 1023.7
20230208165653 55 84 14.8 20.9 0.00 0.00 0.00 30 1023.4
20230208165154 55 99 15.6 20.9 0.00 0.00 0.00 29 1023.5
20230208164653 55 104 11.3 15.6 0.00 0.00 0.00 31 1023.4
20230208164153 54 88 7.0 14.8 0.00 0.00 0.00 31 1023.4
20230208163653 53 74 6.1 20.0 0.00 0.00 0.00 32 1023.5
20230208162654 52 66 7.8 14.8 0.00 0.00 0.00 32 1023.1
20230208162153 52 114 5.2 17.4 0.00 0.00 0.00 33 1023.2
20230208161153 51 145 10.4 17.4 0.00 0.00 0.00 32 1023.0
20230208160652 50 111 2.6 11.3 0.00 0.00 0.00 33 1022.9
20230208155652 50 141 7.0 20.0 0.00 0.00 0.00 33 1022.3
20230208155152 49 120 7.8 20.0 0.00 0.00 0.00 34 1021.9
20230208154651 49 78 7.8 12.2 0.00 0.00 0.00 34 1021.9
20230208154151 49 95 3.5 8.7 0.00 0.00 0.00 35 1022.1
20230208153651 49 62 0.9 13.0 0.00 0.00 0.00 34 1022.1
20230208153151 49 92 3.5 13.0 0.00 0.00 0.00 34 1022.2
20230208152651 49 80 6.1 13.9 0.00 0.00 0.00 33 1022.0
20230208151651 49 133 10.4 16.5 0.00 0.00 0.00 33 1021.6
20230208151151 49 98 14.8 16.5 0.00 0.00 0.00 33 1021.6
20230208150651 49 111 7.8 13.9 0.00 0.00 0.00 34 1021.6
20230208150150 48 90 7.0 13.9 0.00 0.00 0.00 34 1021.5
20230208145650 48 77 8.7 13.9 0.00 0.00 0.00 34 1021.5
20230208145150 49 81 4.3 13.9 0.00 0.00 0.00 33 1021.7
20230208144650 49 56 8.7 13.9 0.00 0.00 0.00 33 1021.6
20230208144150 49 12 4.3 13.9 0.00 0.00 0.00 32 1021.5
20230208143650 49 59 4.3 13.9 0.00 0.00 0.00 32 1021.4
20230208143149 49 46 9.6 17.4 0.00 0.00 0.00 32 1021.3
20230208142649 49 75 6.1 17.4 0.00 0.00 0.00 32 1021.1
20230208142150 49 87 9.6 13.9 0.00 0.00 0.00 32 1020.9
20230208141132 49 90 13.0 17.4 0.00 0.00 0.00 32 1021.3
20230208140632 49 82 6.1 13.0 0.00 0.00 0.00 31 1021.2
20230208140131 49 86 6.1 13.0 0.00 0.00 0.00 31 1021.5
20230208135632 49 80 7.8 13.0 0.00 0.00 0.00 32 1021.4
20230208135132 49 122 7.8 11.3 0.00 0.00 0.00 31 1021.3
20230208134632 49 97 5.2 13.9 0.00 0.00 0.00 31 1021.2
20230208134131 49 113 7.0 13.9 0.00 0.00 0.00 31 1021.1
20230208133131 49 58 5.2 12.2 0.00 0.00 0.00 32 1021.0
20230208132632 49 89 3.5 12.2 0.00 0.00 0.00 31 1021.0
20230208132130 48 57 8.7 12.2 0.00 0.00 0.00 31 1021.0
20230208131631 48 113 8.7 13.0 0.00 0.00 0.00 32 1020.9
20230208131130 48 9 2.6 14.8 0.00 0.00 0.00 31 1020.9
20230208130630 48 64 4.3 14.8 0.00 0.00 0.00 31 1021.0
20230208130131 48 55 5.2 7.0 0.00 0.00 0.00 31 1022.1
20230208125630 48 76 2.6 8.7 0.00 0.00 0.00 31 1022.2
20230208124130 49 50 3.5 10.4 0.00 0.00 0.00 30 1022.1
20230208123629 49 65 3.5 9.6 0.00 0.00 0.00 30 1022.0
20230208123130 49 103 3.5 11.3 0.00 0.00 0.00 30 1021.8
20230208122629 49 25 8.7 15.6 0.00 0.00 0.00 30 1021.8
20230208122129 49 86 0.0 15.6 0.00 0.00 0.00 31 1021.9
20230208121628 49 62 7.0 12.2 0.00 0.00 0.00 31 1021.8
20230208121159 49 74 3.5 11.3 0.00 0.00 0.00 31 1021.8
20230208120659 49 27 10.4 11.3 0.00 0.00 0.00 31 1021.7
20230208120159 49 31 0.0 8.7 0.00 0.00 0.00 31 1022.5
20230208115658 49 103 1.7 8.7 0.00 0.00 0.00 30 1022.4
20230208115158 49 124 0.9 13.0 0.00 0.00 0.00 31 1022.5
20230208114658 50 44 0.0 13.0 0.00 0.00 0.00 30 1022.7
20230208114158 50 76 3.5 17.4 0.00 0.00 0.00 30 1022.7
20230208113658 50 68 8.7 17.4 0.00 0.00 0.00 30 1022.6
20230208113157 50 113 10.4 16.5 0.00 0.00 0.00 30 1022.4
20230208112658 50 111 7.8 16.5 0.00 0.00 0.00 30 1022.5
20230208112157 50 76 9.6 15.6 0.00 0.00 0.00 31 1022.7
20230208111657 50 348 3.5 16.5 0.00 0.00 0.00 30 1022.6
20230208111157 50 105 11.3 17.4 0.00 0.00 0.00 30 1022.7
20230208110658 50 90 14.8 17.4 0.00 0.00 0.00 30 1022.8
20230208110157 50 95 7.8 17.4 0.00 0.00 0.00 30 1022.8
20230208105657 50 98 13.0 17.4 0.00 0.00 0.00 31 1022.8
20230208105156 50 98 11.3 18.2 0.00 0.00 0.00 31 1022.8
20230208104656 50 131 9.6 18.2 0.00 0.00 0.00 31 1022.9
20230208104156 50 103 11.3 17.4 0.00 0.00 0.00 31 1023.0
20230208103656 50 106 8.7 17.4 0.00 0.00 0.00 31 1023.1
20230208103156 50 97 12.2 20.9 0.00 0.00 0.00 31 1023.2
20230208102656 50 111 13.0 20.9 0.00 0.00 0.00 31 1022.9
20230208101655 49 76 2.6 18.2 0.00 0.00 0.00 31 1022.9
20230208100656 49 93 8.7 13.9 0.00 0.00 0.00 31 1023.4
20230208100155 49 77 9.6 12.2 0.00 0.00 0.00 31 1023.3
20230208095655 50 75 1.7 16.5 0.00 0.00 0.00 31 1023.6
20230208095155 50 13 7.8 16.5 0.00 0.00 0.00 30 1023.7
20230208094655 50 61 13.0 13.9 0.00 0.00 0.00 30 1023.7
20230208094155 50 43 11.3 15.6 0.00 0.00 0.00 31 1023.6
20230208093154 49 97 7.8 13.9 0.00 0.00 0.00 31 1023.3
20230208092654 49 89 4.3 10.4 0.00 0.00 0.00 32 1023.4
20230208092154 49 36 2.6 11.3 0.00 0.00 0.00 32 1023.5
20230208091153 49 78 4.3 14.8 0.00 0.00 0.00 31 1023.6
20230208090653 50 28 3.5 14.8 0.00 0.00 0.00 32 1024.0
20230208090153 49 90 8.7 18.2 0.00 0.00 0.00 30 1024.2
20230208085653 49 88 1.7 18.2 0.00 0.00 0.00 30 1024.3
20230208084653 50 69 5.2 15.6 0.00 0.00 0.00 30 1024.2
20230208084153 49 57 2.6 15.6 0.00 0.00 0.00 30 1024.1
20230208083652 49 90 7.0 11.3 0.00 0.00 0.00 30 1024.0
20230208083152 49 107 5.2 11.3 0.00 0.00 0.00 31 1024.1
20230208082652 50 91 6.1 13.0 0.00 0.00 0.00 30 1024.1
20230208082153 50 82 7.0 13.0 0.00 0.00 0.00 30 1024.2
20230208081159 49 107 9.6 14.8 0.00 0.00 0.00 30 1024.3
20230208080700 49 32 8.7 15.6 0.00 0.00 0.00 32 1024.2
20230208080158 49 90 3.5 15.6 0.00 0.00 0.00 32 1024.0
20230208075658 49 89 15.6 15.6 0.00 0.00 0.00 32 1024.0
20230208074658 49 103 10.4 15.6 0.00 0.00 0.00 32 1023.8
20230208074158 49 76 7.8 14.8 0.00 0.00 0.00 32 1023.9
20230208073658 49 62 7.0 14.8 0.00 0.00 0.00 32 1024.0
20230208073158 49 82 7.0 17.4 0.00 0.00 0.00 32 1023.9
20230208072157 49 94 10.4 20.0 0.00 0.00 0.00 31 1023.9
20230208071657 49 82 7.0 20.0 0.00 0.00 0.00 31 1023.9
20230208071157 49 93 6.1 21.7 0.00 0.00 0.00 32 1023.9
20230208070658 49 107 13.0 21.7 0.00 0.00 0.00 32 1023.9
20230208070157 49 109 7.8 21.7 0.00 0.00 0.00 32 1023.7
20230208065657 48 109 7.8 19.1 0.00 0.00 0.00 33 1023.4
20230208065156 47 89 9.6 15.6 0.00 0.00 0.00 34 1023.6
20230208064656 47 99 9.6 10.4 0.00 0.00 0.00 35 1023.7
20230208064156 47 97 7.8 10.4 0.00 0.00 0.00 36 1023.8
20230208063657 46 61 4.3 8.7 0.00 0.00 0.00 36 1023.6
20230208063156 46 78 1.7 11.3 0.00 0.00 0.00 35 1023.6
20230208062655 45 96 1.7 11.3 0.00 0.00 0.00 38 1023.6
20230208061656 43 92 3.5 7.0 0.00 0.00 0.00 39 1023.3
20230208061155 44 181 0.9 3.5 0.00 0.00 0.00 42 1023.4
20230208060656 44 88 0.0 3.5 0.00 0.00 0.00 40 1023.4
20230208060155 45 86 0.9 3.5 0.00 0.00 0.00 38 1023.2
20230208055155 46 117 0.0 5.2 0.00 0.00 0.00 36 1023.3
20230208054655 46 107 2.6 11.3 0.00 0.00 0.00 36 1023.2
20230208054155 46 107 0.9 11.3 0.00 0.00 0.00 37 1023.1
20230208053154 45 148 5.2 7.8 0.00 0.00 0.00 39 1023.0
20230208052154 45 129 6.1 8.7 0.00 0.00 0.00 40 1022.8
20230208051653 45 156 1.7 8.7 0.00 0.00 0.00 40 1022.9
20230208051154 44 130 3.5 12.2 0.00 0.00 0.00 41 1022.7
20230208050654 43 108 6.1 13.0 0.00 0.00 0.00 43 1022.5
20230208050153 41 124 11.3 13.0 0.00 0.00 0.00 47 1022.0
20230208045653 39 146 5.2 8.7 0.00 0.00 0.00 51 1021.9
20230208045153 39 84 1.7 8.7 0.00 0.00 0.00 53 1022.0
20230208044653 38 116 2.6 6.1 0.00 0.00 0.00 54 1022.0
20230208044152 39 95 2.6 3.5 0.00 0.00 0.00 55 1021.9
20230208043653 39 92 0.9 3.5 0.00 0.00 0.00 55 1021.8
20230208043152 40 92 1.7 4.3 0.00 0.00 0.00 54 1022.0
20230208041152 39 92 3.5 9.6 0.00 0.00 0.00 54 1021.8
20230208040651 38 75 7.0 7.8 0.00 0.00 0.00 57 1021.8
20230208035651 37 105 0.0 3.5 0.00 0.00 0.00 60 1020.7
20230208035151 38 105 0.9 3.5 0.00 0.00 0.00 59 1021.1
20230208034651 38 116 2.6 2.6 0.00 0.00 0.00 59 1021.2
20230208034150 38 116 0.0 5.2 0.00 0.00 0.00 59 1021.2
20230208033651 38 116 1.7 5.2 0.00 0.00 0.00 60 1021.1
20230208032650 39 114 5.2 7.0 0.00 0.00 0.00 58 1021.3
20230208031650 39 117 1.7 7.0 0.00 0.00 0.00 57 1021.5
20230208031150 39 110 3.5 6.1 0.00 0.00 0.00 56 1021.5
20230208030149 39 150 5.2 7.0 0.00 0.00 0.00 56 1021.5
20230208025149 39 115 2.6 3.5 0.00 0.00 0.00 56 1021.4
20230208024649 39 116 1.7 3.5 0.00 0.00 0.00 55 1021.4
20230208024149 40 117 0.9 3.5 0.00 0.00 0.00 53 1021.5
20230208023649 40 117 3.5 3.5 0.00 0.00 0.00 52 1021.4
20230208023150 41 116 1.7 6.1 0.00 0.00 0.00 51 1021.7
20230208022649 41 116 3.5 6.1 0.00 0.00 0.00 51 1021.8
20230208022149 42 123 2.6 6.1 0.00 0.00 0.00 50 1021.9
20230208021154 42 117 3.5 6.1 0.00 0.00 0.00 49 1021.7
20230208020653 42 103 2.6 6.1 0.00 0.00 0.00 52 1021.8
20230208020152 43 107 5.2 6.1 0.00 0.00 0.00 49 1022.0
20230208015653 44 109 2.6 6.1 0.00 0.00 0.00 49 1022.0
20230208015152 45 112 1.7 3.5 0.00 0.00 0.00 48 1022.1
20230208014652 46 113 1.7 3.5 0.00 0.00 0.00 46 1022.2
20230208014152 47 113 0.9 3.5 0.00 0.00 0.00 45 1022.3
20230208013152 49 112 1.7 5.2 0.00 0.00 0.00 39 1022.5
20230208012652 49 133 0.9 6.1 0.00 0.00 0.00 38 1022.4
20230208012153 50 135 2.6 6.1 0.00 0.00 0.00 37 1022.4
20230208011652 51 270 0.0 0.9 0.00 0.00 0.00 41 1022.6
20230208010651 52 270 0.0 5.2 0.00 0.00 0.00 42 1022.5
20230208010151 52 269 1.7 3.5 0.00 0.00 0.00 39 1022.7
20230208005151 53 188 2.6 7.0 0.00 0.00 0.00 34 1022.6
20230208004650 54 153 2.6 7.0 0.00 0.00 0.00 32 1022.8
20230208004150 55 134 3.5 7.0 0.00 0.00 0.00 32 1022.7
20230208003150 56 211 1.7 8.7 0.00 0.00 0.00 34 1023.1
20230208002650 57 163 1.7 5.2 0.00 0.00 0.00 37 1023.0
20230208002150 58 146 2.6 7.0 0.00 0.00 0.00 35 1023.1
20230208001649 59 257 2.6 7.0 0.00 0.00 0.00 33 1023.2
20230208000649 60 78 2.6 6.1 0.00 0.00 0.00 30 1023.4
20230208000149 60 281 2.6 8.7 0.00 0.00 0.00 26 1023.2
20230207235149 61 281 2.6 7.0 0.00 0.00 0.00 28 1023.3
20230207234649 61 254 2.6 7.0 0.00 0.00 0.00 27 1023.3
20230207233148 59 109 0.9 10.4 0.00 0.00 0.00 26 1023.1
20230207232648 60 119 2.6 13.9 0.00 0.00 0.00 26 1023.5
20230207232148 60 125 4.3 13.9 0.00 0.00 0.00 27 1023.5
20230207231648 61 133 9.6 12.2 0.00 0.00 0.00 24 1023.5
20230207231148 61 163 0.9 11.3 0.00 0.00 0.00 25 1023.5
20230207230648 60 286 6.1 9.6 0.00 0.00 0.00 26 1023.4
20230207230147 59 133 1.7 11.3 0.00 0.00 0.00 26 1023.4
20230207225648 59 96 7.8 11.3 0.00 0.00 0.00 26 1023.4
20230207225148 59 136 7.8 11.3 0.00 0.00 0.00 25 1023.4
20230207224147 59 117 6.1 12.2 0.00 0.00 0.00 25 1023.5
20230207223647 58 92 7.0 17.4 0.00 0.00 0.00 26 1023.2
20230207223147 58 103 11.3 17.4 0.00 0.00 0.00 26 1023.2
20230207222647 58 149 7.8 15.6 0.00 0.00 0.00 24 1023.3
20230207222147 59 136 7.0 15.6 0.00 0.00 0.00 25 1023.6
20230207221647 59 74 4.3 15.6 0.00 0.00 0.00 26 1023.4
20230207221147 58 163 13.0 15.6 0.00 0.00 0.00 26 1023.2
20230207220646 58 148 4.3 13.0 0.00 0.00 0.00 26 1023.3
20230207220147 59 159 7.0 16.5 0.00 0.00 0.00 26 1023.6
20230207215646 59 107 7.0 16.5 0.00 0.00 0.00 26 1023.6
20230207215146 59 133 7.0 14.8 0.00 0.00 0.00 26 1023.7
20230207214646 59 126 0.0 13.0 0.00 0.00 0.00 26 1023.7
20230207214146 59 115 11.3 13.0 0.00 0.00 0.00 27 1023.7
20230207213146 59 138 4.3 13.0 0.00 0.00 0.00 25 1023.9
20230207212647 60 126 11.3 13.9 0.00 0.00 0.00 27 1023.9
20230207212145 60 177 4.3 14.8 0.00 0.00 0.00 28 1023.8
20230207211145 60 180 1.7 13.9 0.00 0.00 0.00 26 1023.8
20230207210145 60 86 7.0 14.8 0.00 0.00 0.00 25 1023.9
20230207205645 60 130 7.8 13.0 0.00 0.00 0.00 26 1024.0
20230207205144 60 96 9.6 13.9 0.00 0.00 0.00 24 1023.9
20230207204646 60 93 10.4 13.9 0.00 0.00 0.00 25 1024.0
20230207204143 60 71 8.7 13.9 0.00 0.00 0.00 26 1024.0
20230207203643 60 112 5.2 13.9 0.00 0.00 0.00 24 1024.1
20230207203143 60 112 3.5 14.8 0.00 0.00 0.00 23 1024.1
20230207202643 60 76 11.3 14.8 0.00 0.00 0.00 26 1024.4
20230207202143 60 105 6.1 12.2 0.00 0.00 0.00 25 1024.4
20230207200656 60 87 9.6 10.4 0.00 0.00 0.00 25 1024.6
20230207195656 59 117 3.5 17.4 0.00 0.00 0.00 26 1024.6
20230207194656 59 143 2.6 13.9 0.00 0.00 0.00 23 1024.7
20230207194156 58 112 2.6 15.6 0.00 0.00 0.00 28 1024.7
20230207193656 57 139 7.8 20.0 0.00 0.00 0.00 26 1024.7
20230207193155 57 105 10.4 21.7 0.00 0.00 0.00 27 1024.9
20230207192656 57 78 10.4 21.7 0.00 0.00 0.00 27 1024.8
20230207192156 57 108 7.8 14.8 0.00 0.00 0.00 30 1024.8
20230207191655 58 115 10.4 17.4 0.00 0.00 0.00 27 1025.0
20230207191155 58 93 10.4 17.4 0.00 0.00 0.00 28 1024.9
20230207190655 57 96 7.0 15.6 0.00 0.00 0.00 29 1024.9
20230207185655 57 86 8.7 18.2 0.00 0.00 0.00 31 1024.9
20230207185154 56 130 6.1 18.2 0.00 0.00 0.00 29 1024.8
20230207184154 55 78 13.0 19.1 0.00 0.00 0.00 28 1024.8
20230207183654 55 121 4.3 17.4 0.00 0.00 0.00 30 1024.8
20230207183154 55 133 7.0 15.6 0.00 0.00 0.00 31 1024.9
20230207182153 54 119 8.7 20.0 0.00 0.00 0.00 31 1025.0
20230207181653 54 101 12.2 19.1 0.00 0.00 0.00 31 1025.0
20230207181153 54 123 13.9 18.2 0.00 0.00 0.00 30 1025.1
20230207180153 54 90 7.0 17.4 0.00 0.00 0.00 31 1025.1
20230207175654 54 122 6.1 22.6 0.00 0.00 0.00 29 1025.1